Location: Grasslands National Park East Block
(49.0708°N, 106.5295°W)
Time: 15:54:47
(UTC-06:00)

SR - Pass Details

Date: 27 October 2019
Orbit: 574 x 882 km, 66.7° (Epoch: 12 November)

Event Time Altitude Azimuth Distance (km) Brightness Sun altitude
Exits shadow 06:58:57 - 316° (NW) 3,134 ? -8.2°
Reaches altitude 10° 07:00:42 10° 310° (NW) 2,539 ? -7.9°
Maximum altitude 07:05:57 34° 248° (WSW) 1,423 ? -7.1°
Drops below altitude 10° 07:11:08 10° 186° (S) 2,506 ? -6.2°
Sets 07:13:47 0° 177° (S) 3,414 ? -5.8°
